Time,TemperatureF,DewpointF,PressureIn,WindDirection,WindDirectionDegrees,WindSpeedMPH,WindSpeedGustMPH,Humidity,HourlyPrecipIn,Conditions,Clouds,dailyrainin,SoftwareType,DateUTC
2013-05-05 00:04:00,50.1,44.0,29.97,WSW,253,4.0,-999.0,78,-99.99,,,0.00,weatherlink.com 1.10,2013-05-05 07:04:00,
2013-05-05 00:19:00,50.1,44.0,29.97,WSW,250,7.0,-999.0,79,-99.99,,,0.00,weatherlink.com 1.10,2013-05-05 07:19:00,
2013-05-05 00:34:00,49.8,44.0,29.96,WSW,250,10.0,-999.0,79,-99.99,,,0.00,weatherlink.com 1.10,2013-05-05 07:34:00,
2013-05-05 00:49:00,49.5,44.0,29.96,WSW,257,7.0,-999.0,80,-99.99,,,0.00,weatherlink.com 1.10,2013-05-05 07:49:00,
2013-05-05 01:04:00,48.8,44.0,29.96,WSW,246,2.0,-999.0,82,-99.99,,,0.00,weatherlink.com 1.10,2013-05-05 08:04:00,
2013-05-05 01:19:00,48.2,43.0,29.96,WSW,249,5.0,-999.0,83,-99.99,,,0.00,weatherlink.com 1.10,2013-05-05 08:19:00,
2013-05-05 01:34:00,48.3,44.0,29.96,WSW,255,10.0,-999.0,84,-99.99,,,0.00,weatherlink.com 1.10,2013-05-05 08:34:00,
2013-05-05 01:49:00,48.3,43.0,29.96,WSW,250,7.0,-999.0,83,-99.99,,,0.00,weatherlink.com 1.10,2013-05-05 08:49:00,
2013-05-05 02:04:00,49.3,43.0,29.95,WSW,253,6.0,-999.0,80,-99.99,,,0.00,weatherlink.com 1.10,2013-05-05 09:04:00,
2013-05-05 02:19:00,49.0,43.0,29.96,SW,236,4.0,-999.0,79,-99.99,,,0.00,weatherlink.com 1.10,2013-05-05 09:19:00,
2013-05-05 02:34:00,48.3,43.0,29.96,WSW,258,5.0,-999.0,82,-99.99,,,0.00,weatherlink.com 1.10,2013-05-05 09:34:00,
2013-05-05 02:49:00,49.8,43.0,29.96,WSW,248,4.0,-999.0,77,-99.99,,,0.00,weatherlink.com 1.10,2013-05-05 09:49:00,
2013-05-05 03:04:00,49.3,43.0,29.95,WSW,243,0.0,-999.0,78,-99.99,,,0.00,weatherlink.com 1.10,2013-05-05 10:04:00,
2013-05-05 03:19:00,48.1,43.0,29.95,WSW,246,3.0,-999.0,81,-99.99,,,0.00,weatherlink.com 1.10,2013-05-05 10:19:00,
2013-05-05 03:34:00,47.9,42.0,29.95,WSW,249,5.0,-999.0,81,-99.99,,,0.00,weatherlink.com 1.10,2013-05-05 10:34:00,
2013-05-05 03:49:00,47.4,42.0,29.95,West,259,3.0,-999.0,81,-99.99,,,0.00,weatherlink.com 1.10,2013-05-05 10:49:00,
2013-05-05 04:04:00,46.6,42.0,29.95,WSW,257,4.0,-999.0,84,-99.99,,,0.00,weatherlink.com 1.10,2013-05-05 11:04:00,
2013-05-05 04:20:00,46.0,42.0,29.95,WSW,240,6.0,-999.0,85,-99.99,,,0.00,weatherlink.com 1.10,2013-05-05 11:20:00,
2013-05-05 04:35:00,46.4,42.0,29.94,WSW,250,4.0,-999.0,85,-99.99,,,0.00,weatherlink.com 1.10,2013-05-05 11:35:00,
2013-05-05 04:50:00,46.3,42.0,29.95,WSW,254,6.0,-999.0,84,-99.99,,,0.00,weatherlink.com 1.10,2013-05-05 11:50:00,
2013-05-05 05:05:00,45.9,42.0,29.95,WSW,256,5.0,-999.0,86,-99.99,,,0.00,weatherlink.com 1.10,2013-05-05 12:05:00,
2013-05-05 05:20:00,45.8,42.0,29.94,WSW,255,5.0,-999.0,86,-99.99,,,0.00,weatherlink.com 1.10,2013-05-05 12:20:00,
2013-05-05 05:35:00,45.6,42.0,29.94,West,265,5.0,-999.0,86,-99.99,,,0.00,weatherlink.com 1.10,2013-05-05 12:35:00,
2013-05-05 05:50:00,46.1,42.0,29.93,WSW,257,6.0,-999.0,86,-99.99,,,0.00,weatherlink.com 1.10,2013-05-05 12:50:00,
2013-05-05 06:05:00,47.1,43.0,29.93,WSW,248,4.0,-999.0,84,-99.99,,,0.00,weatherlink.com 1.10,2013-05-05 13:05:00,
2013-05-05 06:20:00,47.2,43.0,29.93,WSW,253,5.0,-999.0,84,-99.99,,,0.00,weatherlink.com 1.10,2013-05-05 13:20:00,
2013-05-05 06:35:00,49.0,43.0,29.93,WSW,240,2.0,-999.0,81,-99.99,,,0.00,weatherlink.com 1.10,2013-05-05 13:35:00,
2013-05-05 06:50:00,48.6,43.0,29.93,WSW,252,2.0,-999.0,82,-99.99,,,0.00,weatherlink.com 1.10,2013-05-05 13:50:00,
2013-05-05 07:05:00,49.7,45.0,29.93,WSW,249,0.0,-999.0,83,-99.99,,,0.00,weatherlink.com 1.10,2013-05-05 14:05:00,
2013-05-05 07:20:00,51.4,46.0,29.93,WNW,288,0.0,-999.0,82,-99.99,,,0.00,weatherlink.com 1.10,2013-05-05 14:20:00,
2013-05-05 07:35:00,52.5,45.0,29.93,WNW,288,0.0,-999.0,77,-99.99,,,0.00,weatherlink.com 1.10,2013-05-05 14:35:00,
2013-05-05 07:50:00,53.2,46.0,29.93,WNW,288,0.0,-999.0,77,-99.99,,,0.00,weatherlink.com 1.10,2013-05-05 14:50:00,
2013-05-05 08:05:00,54.6,46.0,29.92,WNW,286,0.0,-999.0,74,-99.99,,,0.00,weatherlink.com 1.10,2013-05-05 15:05:00,
2013-05-05 08:20:00,54.5,46.0,29.92,SSE,165,2.0,-999.0,72,-99.99,,,0.00,weatherlink.com 1.10,2013-05-05 15:20:00,
2013-05-05 08:35:00,55.1,46.0,29.92,SSE,159,0.0,-999.0,72,-99.99,,,0.00,weatherlink.com 1.10,2013-05-05 15:35:00,
2013-05-05 08:50:00,56.2,47.0,29.92,SSE,159,0.0,-999.0,70,-99.99,,,0.00,weatherlink.com 1.10,2013-05-05 15:50:00,
2013-05-05 09:05:00,56.6,46.0,29.92,SSE,159,0.0,-999.0,69,-99.99,,,0.00,weatherlink.com 1.10,2013-05-05 16:05:00,
2013-05-05 09:20:00,56.7,47.0,29.91,SSE,165,3.0,-999.0,69,-99.99,,,0.00,weatherlink.com 1.10,2013-05-05 16:20:00,
2013-05-05 09:36:00,54.8,47.0,29.92,South,180,5.0,-999.0,74,-99.99,,,0.00,weatherlink.com 1.10,2013-05-05 16:36:00,
2013-05-05 09:51:00,54.8,47.0,29.91,SSE,150,8.0,-999.0,74,-99.99,,,0.00,weatherlink.com 1.10,2013-05-05 16:51:00,
2013-05-05 10:06:00,54.3,47.0,29.91,SE,133,0.0,-999.0,76,-99.99,,,0.00,weatherlink.com 1.10,2013-05-05 17:06:00,
2013-05-05 10:21:00,58.1,48.0,29.91,SSE,151,0.0,-999.0,69,-99.99,,,0.00,weatherlink.com 1.10,2013-05-05 17:21:00,
2013-05-05 10:35:00,60.2,48.0,29.90,SSE,163,2.0,-999.0,64,-99.99,,,0.00,weatherlink.com 1.10,2013-05-05 17:35:00,
2013-05-05 10:50:00,62.5,48.0,29.89,SE,130,0.0,-999.0,59,-99.99,,,0.00,weatherlink.com 1.10,2013-05-05 17:50:00,
2013-05-05 11:05:00,64.5,48.0,29.89,SE,136,0.0,-999.0,55,-99.99,,,0.00,weatherlink.com 1.10,2013-05-05 18:05:00,
2013-05-05 11:20:00,67.0,49.0,29.89,East,90,0.0,-999.0,52,-99.99,,,0.00,weatherlink.com 1.10,2013-05-05 18:20:00,
2013-05-05 11:35:00,69.0,48.0,29.89,East,90,0.0,-999.0,47,-99.99,,,0.00,weatherlink.com 1.10,2013-05-05 18:35:00,
2013-05-05 11:50:00,69.5,47.0,29.88,ENE,74,1.0,-999.0,44,-99.99,,,0.00,weatherlink.com 1.10,2013-05-05 18:50:00,
2013-05-05 12:05:00,69.8,47.0,29.88,ESE,108,0.0,-999.0,45,-99.99,,,0.00,weatherlink.com 1.10,2013-05-05 19:05:00,
2013-05-05 12:20:00,69.4,46.0,29.87,NE,53,0.0,-999.0,44,-99.99,,,0.00,weatherlink.com 1.10,2013-05-05 19:20:00,
2013-05-05 12:35:00,69.4,46.0,29.86,NE,48,3.0,-999.0,44,-99.99,,,0.00,weatherlink.com 1.10,2013-05-05 19:35:00,
2013-05-05 12:50:00,70.6,48.0,29.86,SE,130,0.0,-999.0,44,-99.99,,,0.00,weatherlink.com 1.10,2013-05-05 19:50:00,
2013-05-05 13:06:00,71.2,47.0,29.85,ESE,116,1.0,-999.0,43,-99.99,,,0.00,weatherlink.com 1.10,2013-05-05 20:06:00,
2013-05-05 13:21:00,69.9,48.0,29.85,ESE,122,0.0,-999.0,45,-99.99,,,0.00,weatherlink.com 1.10,2013-05-05 20:21:00,
2013-05-05 13:37:00,70.7,48.0,29.84,NE,44,4.0,-999.0,44,-99.99,,,0.00,weatherlink.com 1.10,2013-05-05 20:37:00,
2013-05-05 13:51:00,70.7,48.0,29.84,ENE,69,0.0,-999.0,44,-99.99,,,0.00,weatherlink.com 1.10,2013-05-05 20:51:00,
2013-05-05 14:06:00,72.3,48.0,29.83,NE,44,4.0,-999.0,42,-99.99,,,0.00,weatherlink.com 1.10,2013-05-05 21:06:00,
2013-05-05 14:22:00,72.2,48.0,29.83,NE,53,6.0,-999.0,42,-99.99,,,0.00,weatherlink.com 1.10,2013-05-05 21:22:00,
2013-05-05 14:36:00,72.4,48.0,29.83,NE,35,8.0,-999.0,42,-99.99,,,0.00,weatherlink.com 1.10,2013-05-05 21:36:00,
2013-05-05 14:51:00,71.9,49.0,29.82,East,86,0.0,-999.0,44,-99.99,,,0.00,weatherlink.com 1.10,2013-05-05 21:51:00,
2013-05-05 15:06:00,72.3,48.0,29.82,ENE,78,0.0,-999.0,43,-99.99,,,0.00,weatherlink.com 1.10,2013-05-05 22:06:00,
2013-05-05 15:22:00,72.4,48.0,29.81,East,93,1.0,-999.0,42,-99.99,,,0.00,weatherlink.com 1.10,2013-05-05 22:22:00,
2013-05-05 15:36:00,73.9,47.0,29.80,NE,49,0.0,-999.0,39,-99.99,,,0.00,weatherlink.com 1.10,2013-05-05 22:36:00,
2013-05-05 15:51:00,75.5,47.0,29.80,NE,44,1.0,-999.0,36,-99.99,,,0.00,weatherlink.com 1.10,2013-05-05 22:51:00,
2013-05-05 16:06:00,76.7,46.0,29.79,North,5,4.0,-999.0,34,-99.99,,,0.00,weatherlink.com 1.10,2013-05-05 23:06:00,
2013-05-05 16:21:00,74.7,44.0,29.79,ENE,61,9.0,-999.0,34,-99.99,,,0.00,weatherlink.com 1.10,2013-05-05 23:21:00,
2013-05-05 16:36:00,72.2,45.0,29.78,NE,55,6.0,-999.0,38,-99.99,,,0.00,weatherlink.com 1.10,2013-05-05 23:36:00,
2013-05-05 16:51:00,73.2,44.0,29.77,ENE,74,3.0,-999.0,35,-99.99,,,0.00,weatherlink.com 1.10,2013-05-05 23:51:00,
2013-05-05 17:06:00,72.9,45.0,29.77,East,91,9.0,-999.0,37,-99.99,,,0.00,weatherlink.com 1.10,2013-05-06 00:06:00,
2013-05-05 17:21:00,74.3,46.0,29.77,ENE,76,2.0,-999.0,36,-99.99,,,0.00,weatherlink.com 1.10,2013-05-06 00:21:00,
2013-05-05 17:36:00,78.8,41.0,29.76,ESE,117,3.0,-999.0,26,-99.99,,,0.00,weatherlink.com 1.10,2013-05-06 00:36:00,
2013-05-05 17:51:00,78.7,46.0,29.76,ENE,69,2.0,-999.0,31,-99.99,,,0.00,weatherlink.com 1.10,2013-05-06 00:51:00,
2013-05-05 18:06:00,75.3,45.0,29.75,NNE,20,0.0,-999.0,34,-99.99,,,0.00,weatherlink.com 1.10,2013-05-06 01:06:00,
2013-05-05 18:21:00,73.5,44.0,29.75,NNE,19,0.0,-999.0,35,-99.99,,,0.00,weatherlink.com 1.10,2013-05-06 01:21:00,
2013-05-05 18:36:00,75.1,43.0,29.75,North,5,3.0,-999.0,32,-99.99,,,0.00,weatherlink.com 1.10,2013-05-06 01:36:00,
2013-05-05 18:51:00,76.6,45.0,29.75,WSW,256,0.0,-999.0,33,-99.99,,,0.00,weatherlink.com 1.10,2013-05-06 01:51:00,
2013-05-05 19:06:00,77.6,44.0,29.75,South,179,3.0,-999.0,30,-99.99,,,0.00,weatherlink.com 1.10,2013-05-06 02:06:00,
2013-05-05 19:21:00,77.1,43.0,29.75,SW,220,0.0,-999.0,30,-99.99,,,0.00,weatherlink.com 1.10,2013-05-06 02:21:00,
2013-05-05 19:36:00,76.7,42.0,29.74,SW,219,3.0,-999.0,29,-99.99,,,0.00,weatherlink.com 1.10,2013-05-06 02:36:00,
2013-05-05 19:51:00,75.9,42.0,29.74,South,181,3.0,-999.0,30,-99.99,,,0.00,weatherlink.com 1.10,2013-05-06 02:51:00,
2013-05-05 20:06:00,72.2,47.0,29.74,SSE,155,0.0,-999.0,41,-99.99,,,0.00,weatherlink.com 1.10,2013-05-06 03:06:00,
2013-05-05 20:21:00,67.7,48.0,29.74,SSE,155,0.0,-999.0,50,-99.99,,,0.00,weatherlink.com 1.10,2013-05-06 03:21:00,
2013-05-05 20:36:00,60.6,47.0,29.75,SSE,165,0.0,-999.0,61,-99.99,,,0.00,weatherlink.com 1.10,2013-05-06 03:36:00,
2013-05-05 20:51:00,57.8,48.0,29.75,SSE,161,0.0,-999.0,69,-99.99,,,0.00,weatherlink.com 1.10,2013-05-06 03:51:00,
2013-05-05 21:06:00,56.9,47.0,29.75,SSE,161,0.0,-999.0,70,-99.99,,,0.00,weatherlink.com 1.10,2013-05-06 04:06:00,
2013-05-05 21:21:00,55.9,47.0,29.76,SSE,161,0.0,-999.0,72,-99.99,,,0.00,weatherlink.com 1.10,2013-05-06 04:21:00,
2013-05-05 21:36:00,55.3,47.0,29.76,SSE,161,0.0,-999.0,74,-99.99,,,0.00,weatherlink.com 1.10,2013-05-06 04:36:00,
2013-05-05 21:51:00,55.0,48.0,29.76,SSE,161,0.0,-999.0,77,-99.99,,,0.00,weatherlink.com 1.10,2013-05-06 04:51:00,
2013-05-05 22:06:00,55.5,49.0,29.76,SSE,161,0.0,-999.0,78,-99.99,,,0.00,weatherlink.com 1.10,2013-05-06 05:06:00,
2013-05-05 22:21:00,55.7,49.0,29.76,SSE,162,1.0,-999.0,77,-99.99,,,0.00,weatherlink.com 1.10,2013-05-06 05:21:00,
2013-05-05 22:36:00,55.4,48.0,29.76,WSW,248,4.0,-999.0,77,-99.99,,,0.00,weatherlink.com 1.10,2013-05-06 05:36:00,
2013-05-05 22:51:00,54.6,48.0,29.76,WSW,250,3.0,-999.0,79,-99.99,,,0.00,weatherlink.com 1.10,2013-05-06 05:51:00,
2013-05-05 23:06:00,54.0,48.0,29.76,WSW,252,4.0,-999.0,80,-99.99,,,0.00,weatherlink.com 1.10,2013-05-06 06:06:00,
2013-05-05 23:21:00,53.6,48.0,29.76,WSW,252,6.0,-999.0,81,-99.99,,,0.00,weatherlink.com 1.10,2013-05-06 06:21:00,
2013-05-05 23:37:00,54.2,48.0,29.77,WSW,248,3.0,-999.0,80,-99.99,,,0.00,weatherlink.com 1.10,2013-05-06 06:37:00,
2013-05-05 23:52:00,55.2,48.0,29.77,WSW,253,4.0,-999.0,76,-99.99,,,0.00,weatherlink.com 1.10,2013-05-06 06:52:00,